QPF
0.00 0.00 0.00 0.00 0.00 0.00 0.00 0.00 0.00 0.00 0.00 0.00 0.00 0.00 0.00 0.00 0.00 0.00 0.00 0.00 0.00 0.00 0.00 0.00 0.00 0.00 0.00 0.00 0.00 0.00 0.00 0.00 0.00 0.00 0.00 0.00 0.00 0.00 0.00 0.00 0.00 0.00 0.00 0.00
0.00 0.00 0.00 0.00 0.00 0.00 0.00 0.00 0.00 0.00 0.00 0.00 0.00 0.00 0.00 0.00 0.00 0.00 0.00 0.00 0.00 0.00 0.00 0.00 0.00 0.00 0.00 0.00 0.00 0.00 0.00 0.00 0.00 0.00 0.00 0.00 0.00 0.00 0.00 0.00 0.00 0.00 0.00 0.00
0.00 0.00 0.00 0.00 0.00 0.00 0.00 0.00 0.00 0.00 0.00 0.00 0.00 0.00 0.00 0.00 0.00 0.00 0.00 0.00 0.00 0.00 0.00 0.00 0.00 0.00 0.00 0.00 0.00 0.00 0.00 0.00 0.00 0.00 0.00 0.00 0.00 0.00 0.00 0.00 0.00 0.00 0.00 0.00
0.00 0.00 0.00 0.00 0.00 0.00 0.00 0.00 0.00 0.00 0.00 0.00 0.00 0.00 0.00 0.00 0.00 0.00 0.00 0.00 0.00 0.00 0.00 0.00 0.00 0.00 0.00 0.00 0.00 0.00 0.00 0.00 0.00 0.00 0.00 0.00 0.00 0.00 0.00 0.00 0.00 0.00 0.00 0.00
0.00 0.00 0.00 0.00 0.00 0.00 0.00 0.00 0.00 0.00 0.00 0.00 0.00 0.00 0.00 0.00 0.00 0.00 0.00 0.00 0.00 0.00 0.00 0.00 0.00 0.00 0.00 0.00 0.00 0.00 0.00 0.00 0.00 0.00 0.00 0.00 0.00 0.00 0.00 0.00 0.00 0.00 0.00 0.00
0.00 0.00 0.00 0.00 0.00 0.00 0.00 0.00 0.00 0.00 0.00 0.00 0.00 0.00 0.00 0.00 0.00 0.00 0.00 0.00 0.00 0.00 0.00 0.00 0.00 0.00 0.00 0.00 0.00 0.00 0.00 0.00 0.00 0.00 0.00 0.00 0.00 0.00 0.00 0.00 0.00 0.00 0.00 0.00
0.00 0.00 0.00 0.00 0.00 0.00 0.00 0.00 0.00 0.00 0.00 0.00 0.00 0.00 0.00 0.00 0.00 0.00 0.00 0.00 0.00 0.00 0.00 0.00 0.00 0.00 0.00 0.00 0.00 0.00 0.00 0.00 0.00 0.00 0.00 0.00 0.00 0.00 0.00 0.00 0.00 0.00 0.00 0.00
0.00 0.00 0.00 0.00 0.00 0.00 0.00 0.00 0.00 0.00 0.00 0.00 0.00 0.00 0.00 0.00 0.00 0.00 0.00 0.00 0.00 0.00 0.00 0.00 0.00 0.00 0.00 0.00 0.00 0.00 0.00 0.00 0.00 0.00 0.00 0.00 0.00 0.00 0.00 0.00 0.00 0.00 0.00 0.00
0.00 0.00 0.00 0.00 0.00 0.00 0.00 0.00 0.00 0.00 0.00 0.00 0.00 0.00 0.00 0.00 0.00 0.00 0.00 0.00 0.00 0.00 0.00 0.00 0.00 0.00 0.00 0.00 0.00 0.00 0.00 0.00 0.00 0.00 0.00 0.00 0.00 0.00 0.00 0.00 0.00 0.00 0.00 0.00
0.00 0.00 0.00 0.00 0.00 0.00 0.00 0.00 0.00 0.00 0.00 0.00 0.00 0.00 0.00 0.00 0.00 0.00 0.00 0.00 0.00 0.00 0.00 0.00 0.00 0.00 0.00 0.00 0.00 0.00 0.00 0.00 0.00 0.00 0.00 0.00 0.00 0.00 0.00 0.00 0.00 0.00 0.00 0.00
0.00 0.00 0.00 0.00 0.00 0.00 0.00 0.00 0.00 0.00 0.00 0.00 0.00 0.00 0.00 0.00 0.00 0.00 0.00 0.00 0.00 0.00 0.00 0.00 0.00 0.00 0.00 0.00 0.00 0.00 0.00 0.00 0.00 0.00 0.00 0.00 0.00 0.00 0.00 0.00 0.00 0.00 0.00 0.00
0.00 0.00 0.00 0.00 0.00 0.00 0.00 0.00 0.00 0.00 0.00 0.00 0.00 0.00 0.00 0.00 0.00 0.00 0.00 0.00 0.00 0.00 0.00 0.00 0.00 0.00 0.00 0.00 0.00 0.00 0.00 0.00 0.00 0.00 0.00 0.00 0.00 0.00 0.00 0.00 0.00 0.00 0.00 0.00
0.00 0.00 0.00 0.00 0.00 0.00 0.00 0.00 0.00 0.00 0.00 0.00 0.00 0.00 0.00 0.00 0.00 0.00 0.00 0.00 0.00 0.00 0.00 0.00 0.00 0.00 0.00 0.00 0.00 0.00 0.00 0.00 0.00 0.00 0.00 0.00 0.00 0.00 0.00 0.00 0.00 0.00 0.00 0.00
0.01 0.00 0.00 0.00 0.00 0.00 0.00 0.00 0.00 0.00 0.00 0.00 0.00 0.00 0.00 0.00 0.00 0.00 0.00 0.00 0.00 0.00 0.00 0.00 0.00 0.00 0.00 0.00 0.00 0.00 0.00 0.00 0.00 0.00 0.00 0.00 0.00 0.00 0.00 0.00 0.00 0.00 0.00 0.00
0.00 0.00 0.00 0.00 0.00 0.00 0.00 0.00 0.00 0.00 0.00 0.00 0.00 0.00 0.00 0.00 0.00 0.00 0.00 0.00 0.00 0.00 0.00 0.00 0.00 0.00 0.00 0.00 0.00 0.00 0.00 0.00 0.00 0.00 0.00 0.00 0.00 0.00 0.00 0.00 0.00 0.00 0.00 0.00
0.00 0.00 0.00 0.00 0.00 0.00 0.00 0.00 0.00 0.00 0.00 0.00 0.00 0.00 0.00 0.00 0.00 0.00 0.00 0.00 0.00 0.00 0.00 0.00 0.00 0.00 0.00 0.00 0.00 0.00 0.00 0.00 0.00 0.00 0.00 0.00 0.00 0.00 0.00 0.00 0.00 0.00 0.00 0.00
0.00 0.00 0.00 0.00 0.00 0.00 0.00 0.00 0.00 0.00 0.00 0.00 0.00 0.00 0.00 0.00 0.00 0.00 0.00 0.00 0.00 0.00 0.00 0.00 0.00 0.00 0.00 0.00 0.00 0.00 0.00 0.00 0.00 0.00 0.00 0.00 0.00 0.00 0.00 0.00 0.00 0.00 0.00 0.00
0.00 0.00 0.00 0.00 0.00 0.00 0.00 0.00 0.00 0.00 0.00 0.00 0.00 0.00 0.00 0.00 0.00 0.00 0.00 0.00 0.00 0.00 0.00 0.00 0.00 0.00 0.00 0.00 0.00 0.00 0.00 0.00 0.00 0.00 0.00 0.00 0.00 0.00 0.00 0.00 0.00 0.00 0.00 0.00
0.00 0.00 0.00 0.00 0.00 0.00 0.00 0.00 0.00 0.00 0.00 0.00 0.00 0.00 0.00 0.00 0.00 0.00 0.00 0.00 0.00 0.00 0.00 0.00 0.00 0.00 0.00 0.00 0.00 0.00 0.00 0.00 0.00 0.00 0.00 0.00 0.00 0.00 0.00 0.00 0.00 0.00 0.00 0.00
0.00 0.00 0.00 0.00 0.00 0.00 0.00 0.00 0.00 0.00 0.00 0.00 0.00 0.00 0.00 0.00 0.00 0.00 0.00 0.00 0.00 0.00 0.00 0.00 0.00 0.00 0.00 0.00 0.00 0.00 0.00 0.00 0.00 0.00 0.00 0.00 0.00 0.00 0.00 0.00 0.00 0.00 0.00 0.00
0.01 0.01 0.00 0.00 0.00 0.00 0.00 0.00 0.00 0.00 0.00 0.00 0.00 0.00 0.00 0.00 0.00 0.00 0.00 0.00 0.00 0.00 0.00 0.00 0.00 0.00 0.00 0.00 0.00 0.00 0.00 0.00 0.00 0.00 0.00 0.00 0.00 0.00 0.00 0.00 0.00 0.00 0.00 0.00
0.00 0.00 0.00 0.00 0.00 0.00 0.00 0.00 0.00 0.00 0.00 0.00 0.00 0.00 0.00 0.00 0.00 0.00 0.00 0.00 0.00 0.00 0.00 0.00 0.00 0.00 0.00 0.00 0.00 0.00 0.00 0.00 0.00 0.00 0.00 0.00 0.00 0.00 0.00 0.00 0.00 0.00 0.00 0.00
0.00 0.00 0.00 0.00 0.00 0.00 0.00 0.00 0.00 0.00 0.00 0.00 0.00 0.00 0.00 0.00 0.00 0.00 0.00 0.00 0.00 0.00 0.00 0.00 0.00 0.00 0.00 0.00 0.00 0.00 0.00 0.00 0.00 0.00 0.00 0.00 0.00 0.00 0.00 0.00 0.00 0.00 0.00 0.00
0.00 0.00 0.00 0.00 0.00 0.00 0.00 0.00 0.00 0.00 0.00 0.00 0.00 0.00 0.00 0.00 0.00 0.00 0.00 0.00 0.00 0.00 0.00 0.00 0.00 0.00 0.00 0.00 0.00 0.00 0.00 0.00 0.00 0.00 0.00 0.00 0.00 0.00 0.00 0.00 0.00 0.00 0.00 0.00
0.00 0.00 0.01 0.00 0.00 0.00 0.00 0.00 0.00 0.00 0.00 0.00 0.00 0.00 0.00 0.00 0.00 0.00 0.00 0.00 0.00 0.00 0.00 0.00 0.00 0.00 0.00 0.00 0.00 0.00 0.00 0.00 0.00 0.00 0.00 0.00 0.00 0.00 0.00 0.00 0.00 0.00 0.00 0.00
0.00 0.00 0.01 0.00 0.00 0.00 0.00 0.00 0.00 0.00 0.00 0.00 0.00 0.00 0.00 0.00 0.00 0.00 0.00 0.00 0.00 0.00 0.00 0.00 0.00 0.00 0.00 0.00 0.00 0.00 0.00 0.00 0.00 0.00 0.00 0.00 0.00 0.00 0.00 0.00 0.00 0.00 0.00 0.00
MSLP
1007.54 1007.27 1004.85 1004.60 1004.64 1005.32 1004.96 1004.96 1004.51 1004.39 1004.57 1004.76 1003.91 1003.50 1003.16 1002.89 1002.66 1002.01 1001.40 1001.11 1000.88 1000.50 1000.18 1000.98 1001.59 1002.41 1003.11 1003.75 1004.41 1005.23 1006.21 1007.26 1007.82 1008.62 1008.97 1009.33 1009.42 1009.45 1009.51 1009.57 1009.58 1009.61 1009.68 1009.70
1007.08 1004.17 1002.40 1004.50 1005.28 1005.35 1005.02 1004.48 1003.91 1004.32 1004.54 1004.64 1003.71 1002.96 1002.65 1002.15 1001.59 1001.24 1000.75 1000.34 1000.08 999.98 1000.31 1001.45 1002.17 1002.85 1003.37 1003.98 1004.74 1005.25 1006.25 1007.16 1007.66 1008.31 1008.69 1008.97 1009.19 1009.26 1009.26 1009.27 1009.21 1009.25 1009.31 1009.36
1002.80 999.50 1003.08 1003.84 1003.99 1004.44 1004.16 1003.82 1003.94 1004.01 1004.50 1004.34 1003.76 1002.40 1001.74 1001.05 1001.02 1000.37 999.94 999.73 999.59 999.90 1000.41 1001.57 1002.36 1003.03 1003.61 1004.27 1004.98 1005.54 1006.29 1006.98 1007.74 1008.35 1008.74 1009.01 1009.28 1009.14 1008.99 1008.91 1008.87 1009.13 1009.14 1009.07
1002.73 1001.67 1002.03 1002.65 1002.64 1003.82 1003.46 1004.08 1004.30 1004.62 1005.07 1003.65 1004.09 1001.43 1000.94 1000.80 999.99 999.44 998.92 998.89 999.19 999.68 1000.61 1001.52 1002.25 1003.05 1003.64 1004.34 1005.12 1005.64 1006.29 1006.98 1007.79 1008.28 1008.45 1008.64 1008.65 1008.50 1008.66 1008.75 1008.93 1008.98 1008.96 1008.96
1000.51 1001.02 1001.53 1001.58 1001.35 1002.73 1002.28 1003.72 1004.08 1004.89 1004.81 1004.61 1003.83 1002.93 999.27 1000.42 999.31 998.34 997.88 998.16 998.90 999.94 1000.52 1001.57 1002.22 1002.96 1003.81 1004.53 1005.19 1005.84 1006.45 1007.10 1007.74 1008.07 1008.20 1008.38 1008.46 1008.47 1008.60 1008.73 1008.84 1008.84 1008.79 1008.86
1001.13 1000.65 1000.73 999.63 1001.37 1001.94 1003.19 1003.66 1004.14 1004.40 1004.47 1003.65 1003.14 1002.99 997.08 998.68 998.32 997.47 997.19 997.68 998.97 999.84 1000.91 1001.77 1002.69 1003.31 1004.01 1004.62 1005.27 1005.95 1006.59 1007.19 1007.62 1007.89 1008.12 1008.15 1008.15 1008.36 1008.45 1008.56 1008.59 1008.64 1008.65 1008.71
1001.33 1000.43 999.94 999.97 1000.54 1001.56 1002.50 1002.95 1002.99 1003.60 1003.25 1001.46 1002.08 1001.94 997.86 997.77 997.69 997.41 997.01 997.49 998.85 1000.09 1001.09 1001.88 1002.64 1003.35 1004.09 1004.70 1005.34 1006.00 1006.60 1007.05 1007.46 1007.69 1007.92 1008.02 1008.16 1008.35 1008.45 1008.49 1008.44 1008.59 1008.57 1008.41
1000.62 1000.05 999.21 998.84 998.93 999.65 1000.39 1000.84 1000.50 1000.84 1000.67 1000.97 1001.20 999.86 997.08 996.92 996.31 996.44 996.82 997.44 998.90 1000.13 1001.08 1001.94 1002.58 1003.35 1004.13 1004.72 1005.33 1005.95 1006.48 1006.95 1007.32 1007.59 1007.79 1008.06 1008.26 1008.22 1008.39 1008.48 1008.43 1008.48 1008.47 1008.36
1000.70 998.90 998.16 998.26 998.36 998.98 999.56 999.87 1000.46 1000.70 1000.83 1000.27 999.06 998.74 997.30 996.29 995.91 995.99 996.30 997.48 998.74 1000.06 1001.01 1001.99 1002.76 1003.42 1004.13 1004.78 1005.35 1005.91 1006.39 1006.81 1007.17 1007.48 1007.73 1008.00 1008.16 1008.29 1008.33 1008.43 1008.43 1008.41 1008.44 1008.42
1002.42 999.91 998.17 998.12 998.23 998.02 997.75 999.49 1000.18 999.90 999.29 999.21 998.19 997.47 995.96 995.50 995.40 995.40 995.99 997.06 998.60 999.94 1001.02 1001.97 1002.76 1003.34 1004.08 1004.67 1005.35 1006.04 1006.38 1006.64 1007.02 1007.39 1007.62 1007.77 1008.08 1008.23 1008.41 1008.35 1008.34 1008.41 1008.43 1008.39
1004.18 1001.55 998.61 997.77 996.42 996.18 997.77 998.14 998.20 998.52 998.57 997.81 997.43 996.40 995.52 994.76 994.67 994.99 995.55 996.82 998.17 999.54 1000.62 1001.62 1002.44 1003.26 1004.04 1004.59 1005.23 1005.92 1006.30 1006.60 1006.96 1007.30 1007.55 1007.76 1007.91 1008.10 1008.31 1008.37 1008.36 1008.40 1008.40 1008.38
1005.94 1003.39 999.66 997.16 996.70 996.65 996.91 996.79 997.07 996.84 997.96 997.78 997.05 995.96 995.34 994.87 995.02 995.37 996.01 996.95 998.24 999.51 1000.44 1001.39 1002.09 1002.99 1003.85 1004.48 1005.07 1005.64 1006.13 1006.35 1006.76 1007.19 1007.51 1007.69 1007.87 1008.02 1008.23 1008.38 1008.39 1008.43 1008.32 1008.42
1007.59 1004.19 1000.85 998.65 998.04 996.97 996.10 996.50 997.07 997.17 997.28 996.88 996.76 995.78 995.09 995.07 995.03 995.23 995.89 997.17 998.58 999.57 1000.41 1001.29 1001.96 1002.74 1003.53 1004.25 1004.77 1005.23 1005.80 1006.17 1006.71 1007.17 1007.47 1007.71 1007.84 1007.93 1008.19 1008.45 1008.53 1008.44 1008.40 1008.50
1007.90 1005.53 1002.35 999.13 997.99 997.29 996.85 996.64 996.72 996.87 996.50 996.41 996.04 995.60 994.62 994.54 994.66 995.24 996.12 997.09 998.38 999.37 1000.02 1000.87 1001.70 1002.37 1003.21 1003.92 1004.35 1004.86 1005.45 1006.06 1006.67 1007.11 1007.45 1007.63 1007.83 1007.97 1008.19 1008.49 1008.56 1008.62 1008.57 1008.66
1007.69 1005.96 1003.75 1001.27 1000.05 999.11 997.77 996.42 996.38 996.16 996.41 996.05 996.16 995.77 994.42 994.05 994.48 995.21 996.11 997.14 998.01 998.90 999.60 1000.30 1001.12 1001.96 1002.85 1003.59 1004.06 1004.56 1005.20 1005.91 1006.54 1007.00 1007.37 1007.61 1007.90 1008.07 1008.26 1008.44 1008.60 1008.80 1008.92 1009.01
1007.49 1006.31 1004.52 1001.37 1000.02 999.20 997.93 996.94 996.05 996.10 996.40 996.45 996.07 995.20 995.06 994.36 994.92 995.10 995.55 996.58 997.12 998.01 998.73 999.68 1000.63 1001.49 1002.30 1003.01 1003.58 1004.24 1004.98 1005.70 1006.37 1006.82 1007.18 1007.64 1007.90 1008.07 1008.24 1008.55 1008.70 1008.84 1009.03 1009.52
1007.08 1006.26 1004.76 1001.40 1000.45 999.23 997.54 996.33 996.35 996.32 996.53 996.31 995.57 995.33 995.03 994.67 994.35 994.27 994.93 995.60 996.23 996.87 997.80 998.74 999.66 1000.61 1001.62 1002.34 1003.05 1003.82 1004.62 1005.47 1006.17 1006.59 1007.09 1007.53 1007.87 1008.02 1008.21 1008.51 1008.76 1008.94 1009.16 1009.61
1006.72 1006.00 1004.89 1002.50 1000.89 998.96 996.83 996.64 996.20 996.73 996.85 996.75 996.35 995.95 995.06 994.44 993.85 993.68 994.15 994.63 995.48 996.13 996.89 998.09 999.15 1000.19 1001.18 1001.91 1002.68 1003.52 1004.37 1005.10 1005.82 1006.32 1006.84 1007.33 1007.68 1007.95 1008.23 1008.54 1008.83 1009.11 1009.40 1009.58
1006.64 1006.01 1004.66 1003.03 1000.94 998.99 997.82 998.74 998.55 997.53 998.68 999.08 998.08 996.93 995.79 995.49 994.88 993.26 993.64 993.84 994.34 995.25 995.50 996.53 997.83 999.29 1000.60 1001.38 1002.23 1003.21 1004.06 1004.65 1005.37 1005.89 1006.47 1007.04 1007.43 1007.81 1008.14 1008.54 1008.95 1009.27 1009.53 1009.75
1006.23 1006.08 1005.35 1003.83 1001.79 999.62 1000.51 1000.02 999.76 999.42 999.52 1000.15 999.93 999.11 998.29 997.28 995.51 993.22 993.09 993.50 994.01 994.86 995.72 996.36 997.66 999.04 1000.16 1000.92 1001.82 1002.73 1003.45 1004.17 1004.76 1005.43 1006.05 1006.70 1007.21 1007.63 1007.99 1008.50 1009.04 1009.42 1009.67 1009.94
1006.14 1006.16 1005.40 1004.27 1002.97 1001.62 1001.36 1000.26 999.72 1000.07 1001.28 1000.94 1000.73 1000.11 999.27 998.24 995.91 994.36 994.88 993.88 993.58 993.97 994.97 996.26 997.27 997.96 999.21 1000.36 1001.38 1002.11 1002.81 1003.54 1004.20 1005.00 1005.73 1006.40 1006.99 1007.45 1007.86 1008.45 1009.06 1009.42 1009.69 1010.11
1005.73 1005.54 1005.21 1004.71 1003.73 1002.66 1002.24 1000.77 1000.93 1002.24 1001.93 1001.58 1000.97 1000.39 999.51 998.58 997.13 995.88 995.25 994.59 994.13 993.60 994.75 995.88 996.72 997.66 998.81 999.86 1000.66 1001.42 1002.06 1002.87 1003.85 1004.63 1005.35 1006.03 1006.76 1007.24 1007.84 1008.32 1008.89 1009.35 1009.74 1010.10
1005.97 1005.63 1005.20 1004.85 1003.77 1003.89 1003.53 1003.06 1002.84 1002.67 1002.10 1001.62 1001.03 1000.11 999.28 998.15 996.88 995.89 994.69 994.37 993.83 994.12 993.81 994.89 995.81 997.13 998.33 999.23 999.81 1000.45 1001.22 1002.44 1003.36 1004.23 1004.92 1005.71 1006.49 1007.06 1007.66 1008.12 1008.67 1009.19 1009.66 1009.84
1006.41 1006.16 1005.68 1005.18 1004.65 1004.31 1003.89 1003.41 1003.20 1002.81 1002.14 1001.46 1000.76 999.87 998.75 997.59 996.55 995.51 994.26 993.86 993.39 993.49 994.06 994.28 995.36 996.55 997.47 998.38 999.16 999.43 1000.58 1001.76 1002.68 1003.58 1004.48 1005.34 1006.13 1006.80 1007.41 1007.83 1008.38 1008.71 1009.20 1009.47
1007.41 1006.82 1006.01 1005.45 1005.14 1004.42 1003.54 1003.54 1003.20 1002.50 1001.72 1000.92 1000.22 999.44 998.39 997.42 996.20 995.24 993.95 993.08 992.72 992.73 993.48 993.84 994.27 995.30 996.22 997.45 998.38 999.26 1000.12 1001.03 1002.01 1002.94 1003.92 1004.84 1005.58 1006.41 1006.99 1007.45 1007.92 1008.31 1008.74 1009.00
1007.37 1007.14 1006.64 1005.86 1005.48 1005.52 1004.57 1003.60 1003.26 1002.57 1001.63 1000.64 999.82 998.62 998.04 997.20 995.98 994.92 993.65 992.54 992.11 992.00 992.59 993.67 993.75 994.70 995.72 996.68 997.62 998.58 999.61 1000.29 1001.18 1002.23 1003.22 1004.04 1004.71 1005.70 1006.33 1007.01 1008.08 1008.72 1008.81 1009.15
Thickness
5649 5643 5662 5678 5687 5685 5690 5681 5689 5702 5711 5699 5709 5708 5719 5731 5729 5729 5736 5742 5748 5757 5772 5769 5765 5760 5755 5749 5740 5730 5718 5707 5699 5688 5679 5672 5666 5662 5657 5652 5648 5644 5638 5633
5628 5651 5696 5687 5674 5668 5674 5676 5682 5692 5702 5692 5703 5700 5716 5726 5732 5733 5739 5747 5755 5764 5767 5758 5754 5751 5747 5740 5730 5724 5713 5702 5695 5686 5679 5671 5664 5658 5654 5651 5647 5641 5635 5630
5655 5704 5684 5671 5669 5660 5667 5669 5679 5680 5687 5691 5686 5691 5710 5731 5731 5739 5748 5756 5762 5762 5761 5751 5747 5744 5739 5731 5722 5716 5707 5699 5690 5681 5673 5666 5658 5655 5652 5648 5645 5638 5632 5628
5648 5679 5667 5662 5662 5661 5656 5674 5672 5669 5658 5666 5680 5667 5705 5717 5724 5737 5751 5758 5761 5762 5755 5750 5745 5738 5733 5725 5719 5711 5703 5694 5684 5677 5670 5663 5657 5654 5650 5646 5640 5635 5629 5625
5657 5655 5653 5656 5670 5672 5670 5669 5661 5655 5653 5651 5667 5653 5715 5709 5716 5737 5755 5762 5761 5753 5752 5746 5741 5736 5728 5720 5713 5705 5697 5688 5680 5674 5667 5660 5655 5651 5647 5642 5636 5632 5628 5623
5642 5659 5659 5679 5671 5672 5665 5654 5648 5652 5653 5633 5663 5663 5724 5719 5723 5741 5757 5764 5752 5750 5745 5740 5735 5729 5721 5716 5709 5700 5691 5683 5677 5670 5664 5659 5654 5648 5643 5638 5634 5629 5626 5622
5619 5637 5657 5664 5656 5660 5650 5641 5628 5624 5631 5647 5678 5665 5710 5730 5733 5741 5753 5758 5750 5743 5741 5735 5729 5724 5715 5709 5702 5695 5688 5680 5673 5668 5661 5657 5652 5646 5639 5635 5632 5626 5623 5623
5607 5613 5644 5662 5662 5660 5659 5658 5651 5633 5645 5651 5677 5667 5713 5738 5750 5753 5756 5757 5747 5740 5737 5732 5727 5719 5711 5705 5697 5691 5685 5678 5672 5665 5660 5655 5649 5644 5637 5633 5630 5627 5624 5624
5603 5623 5654 5660 5670 5668 5657 5643 5670 5657 5654 5662 5684 5690 5723 5740 5744 5747 5754 5751 5745 5737 5734 5728 5721 5714 5707 5700 5693 5688 5683 5677 5671 5664 5658 5653 5648 5642 5638 5633 5631 5628 5626 5624
5579 5602 5642 5649 5660 5668 5667 5672 5644 5654 5644 5639 5673 5686 5713 5733 5739 5749 5753 5749 5741 5735 5731 5724 5717 5711 5705 5699 5692 5686 5682 5676 5671 5664 5659 5654 5647 5642 5638 5635 5631 5627 5625 5625
5559 5588 5624 5640 5652 5659 5652 5650 5659 5666 5665 5662 5662 5688 5732 5743 5745 5750 5757 5751 5742 5736 5732 5723 5716 5710 5704 5698 5691 5684 5680 5675 5670 5664 5658 5653 5648 5644 5639 5636 5632 5629 5627 5627
5529 5559 5602 5638 5657 5670 5667 5669 5674 5669 5651 5670 5678 5693 5729 5738 5741 5745 5749 5746 5742 5737 5731 5723 5717 5709 5702 5695 5689 5684 5679 5675 5671 5664 5658 5654 5649 5645 5640 5636 5634 5632 5631 5630
5497 5551 5588 5611 5628 5652 5659 5667 5667 5669 5668 5664 5664 5685 5729 5731 5737 5746 5747 5740 5734 5732 5726 5721 5715 5707 5702 5695 5690 5686 5681 5676 5670 5663 5659 5654 5649 5646 5641 5637 5635 5634 5633 5633
5488 5524 5570 5615 5630 5641 5642 5652 5661 5661 5662 5667 5675 5693 5726 5732 5736 5743 5741 5739 5734 5731 5725 5720 5713 5709 5703 5697 5693 5687 5682 5677 5670 5664 5659 5655 5649 5646 5643 5639 5637 5635 5634 5632
5487 5517 5549 5580 5594 5608 5627 5652 5657 5657 5666 5662 5676 5685 5718 5732 5735 5740 5738 5735 5733 5730 5726 5721 5715 5710 5704 5698 5694 5689 5684 5678 5671 5665 5660 5655 5650 5647 5644 5641 5638 5635 5632 5630
5489 5512 5537 5577 5602 5609 5619 5639 5658 5661 5664 5667 5678 5693 5714 5728 5727 5732 5735 5734 5736 5733 5731 5724 5717 5712 5706 5702 5697 5691 5685 5679 5672 5666 5662 5656 5653 5650 5647 5642 5639 5636 5633 5627
5499 5507 5527 5580 5587 5603 5618 5644 5648 5657 5663 5673 5675 5695 5710 5715 5725 5736 5738 5739 5740 5740 5736 5729 5723 5718 5712 5707 5702 5694 5688 5682 5674 5669 5664 5659 5655 5653 5650 5646 5642 5639 5635 5629
5497 5509 5522 5556 5577 5588 5639 5648 5660 5655 5667 5681 5688 5691 5709 5721 5736 5743 5747 5746 5743 5744 5741 5734 5727 5721 5715 5711 5706 5699 5692 5685 5678 5672 5667 5663 5659 5656 5654 5649 5645 5641 5637 5632
5495 5505 5523 5545 5574 5610 5629 5614 5618 5648 5640 5645 5662 5684 5699 5706 5714 5736 5748 5752 5751 5750 5753 5747 5740 5729 5720 5714 5709 5701 5693 5688 5682 5677 5672 5667 5664 5660 5658 5653 5648 5644 5639 5635
5500 5504 5516 5537 5563 5599 5583 5603 5615 5628 5642 5636 5645 5656 5666 5682 5700 5735 5756 5754 5753 5751 5749 5747 5740 5731 5722 5718 5712 5703 5697 5691 5686 5682 5677 5673 5669 5665 5661 5657 5651 5647 5644 5639
5488 5492 5510 5534 5551 5574 5579 5599 5617 5626 5625 5628 5638 5650 5661 5674 5716 5734 5728 5746 5757 5757 5753 5747 5741 5737 5729 5722 5714 5708 5703 5695 5693 5688 5683 5677 5672 5669 5665 5660 5655 5651 5648 5643
5498 5509 5516 5528 5543 5568 5571 5595 5601 5593 5610 5623 5637 5649 5662 5678 5696 5712 5724 5734 5744 5756 5751 5747 5742 5737 5731 5725 5718 5712 5707 5704 5697 5691 5686 5680 5675 5672 5668 5663 5659 5655 5651 5647
5503 5510 5517 5529 5550 5543 5558 5567 5580 5591 5607 5621 5634 5652 5666 5681 5698 5712 5727 5735 5744 5746 5756 5753 5749 5739 5732 5727 5725 5719 5715 5708 5701 5694 5689 5683 5678 5675 5671 5667 5664 5660 5656 5654
5491 5501 5511 5523 5532 5536 5550 5562 5574 5588 5605 5621 5636 5652 5669 5684 5698 5713 5729 5737 5746 5747 5748 5754 5748 5740 5735 5732 5728 5729 5720 5713 5706 5698 5692 5687 5681 5676 5673 5672 5669 5668 5664 5662
5470 5485 5502 5517 5523 5532 5554 5559 5571 5585 5605 5622 5637 5653 5668 5683 5697 5711 5728 5741 5749 5752 5750 5754 5754 5748 5743 5737 5731 5728 5723 5717 5709 5703 5696 5690 5686 5679 5676 5676 5674 5673 5671 5670
5473 5482 5494 5512 5519 5515 5533 5557 5566 5581 5598 5619 5635 5654 5668 5682 5696 5711 5727 5743 5751 5755 5754 5749 5754 5750 5745 5740 5735 5730 5725 5721 5714 5706 5700 5696 5692 5685 5682 5678 5673 5664 5668 5668